This is the latest recevied weather packets stored in our database for station/object DB0MI. If no packets are shown the sender has not sent any weather packets the latest 10 day(s).
| Time | Temp. | Humidity | Pressure | Rain* | Wind** | Luminosity | Snow |
|---|---|---|---|---|---|---|---|
| 1777473723 | 18.33° C | 29% | 1022.9 hPa | 0 mm | - | - | - |
| 1777473124 | 18.33° C | 30% | 1023 hPa | 0 mm | - | - | - |
| 1777472523 | 18.33° C | 30% | 1022.9 hPa | 0 mm | - | - | - |
| 1777471924 | 18.33° C | 31% | 1022.9 hPa | 0 mm | - | - | - |
| 1777471324 | 17.78° C | 31% | 1023 hPa | 0 mm | - | - | - |
| 1777470724 | 17.78° C | 29% | 1022.7 hPa | 0 mm | - | - | - |
| 1777470124 | 17.78° C | 31% | 1023.1 hPa | 0 mm | - | - | - |
| 1777469524 | 17.78° C | 31% | 1022.9 hPa | 0 mm | - | - | - |
| 1777468924 | 17.78° C | 32% | 1023 hPa | 0 mm | - | - | - |
| 1777468324 | 17.22° C | 32% | 1023 hPa | 0 mm | - | - | - |
| 1777467724 | 16.67° C | 31% | 1023.1 hPa | 0 mm | - | - | - |
| 1777467124 | 16.67° C | 33% | 1023 hPa | 0 mm | - | - | - |
| 1777466524 | 16.67° C | 31% | 1023 hPa | 0 mm | - | - | - |
| 1777465924 | 16.67° C | 32% | 1023.1 hPa | 0 mm | - | - | - |
| 1777465324 | 16.67° C | 30% | 1023.2 hPa | 0 mm | - | - | - |
| 1777464724 | 17.22° C | 29% | 1023 hPa | 0 mm | - | - | - |
| 1777464124 | 17.22° C | 29% | 1023.1 hPa | 0 mm | - | - | - |
| 1777463524 | 17.78° C | 28% | 1023 hPa | 0 mm | - | - | - |
| 1777462924 | 18.33° C | 29% | 1023.1 hPa | 0 mm | - | - | - |
| 1777462324 | 18.89° C | 28% | 1023 hPa | 0 mm | - | - | - |
| 1777461724 | 19.44° C | 27% | 1022.8 hPa | 0 mm | - | - | - |
| 1777461124 | 20° C | 29% | 1022.9 hPa | 0 mm | - | - | - |
| 1777460524 | 20.56° C | 27% | 1022.9 hPa | 0 mm | - | - | - |
| 1777459924 | 21.11° C | 28% | 1022.9 hPa | 0 mm | - | - | - |
| 1777459324 | 21.11° C | 27% | 1022.8 hPa | 0 mm | - | - | - |
* Rain latest hour (hover to see other rain measurements)
** Current wind speed in m/s (hover to see current wind gust speed)